Regional Weather Roundup
Issued by NWS

Home | Current Version | Previous Version | Text Only | Print | Product List | Glossary On
Versions: 1 2 3 4 5 6 7 8 9 10 11 12 13 14 15 16 17 18 19 20 21 22 23 24 25 26 27 28 29 30 31 32 33 34 35 36 37 38 39 40 41 42 43 44 45 46 47 48 49 50
000
ASUS44 KOUN 301510
RWROK

WEATHER ROUNDUP FOR OKLAHOMA
NATIONAL WEATHER SERVICE NORMAN OK
1000 AM CDT WED JUL 30 2014

NOTE: "FAIR" INDICATES FEW OR NO CLOUDS BELOW 12,000 FEET WITH NO
      SIGNIFICANT WEATHER AND/OR OBSTRUCTIONS TO VISIBILITY.

OKZ001>007-009>012-014-015-017-301600-
NORTHWEST OKLAHOMA AND THE PANHANDLE

CITY           SKY/WX    TMP DP  RH WIND       PRES   REMARKS
GAGE           LGT RAIN  66  66 100 S8        30.05S
ENID/WOODRING  LGT RAIN  68  66  94 S12G17    30.06F
$$

OKZ016-021>023-033>039-044-045-301600-
SOUTHWEST OKLAHOMA

CITY           SKY/WX    TMP DP  RH WIND       PRES   REMARKS
LAWTON/FT SILL CLOUDY    68  68  99 SE8       30.04F
FREDERICK      LGT RAIN  70  68  93 SE17      30.00F
CLINTON        HVY RAIN  67  65  93 VRB7      30.11R
HOBART         LGT RAIN  68  66  93 S9        30.07R FOG
ALTUS AFB      PTSUNNY   68  68 100 E15       30.02S
$$

OKZ018>020-024>031-301600-
CENTRAL OKLAHOMA

CITY           SKY/WX    TMP DP  RH WIND       PRES   REMARKS
OKLAHOMA CITY  LGT RAIN  68  66  93 SE13      30.06F
OKC/WILEY POST HVY RAIN  70  66  88 S12       30.06F VSB 3/4
OKC/TINKER AFB LGT RAIN  68  67  96 S10       30.07F
STILLWATER     CLOUDY    71  67  87 S7        30.07F
GUTHRIE        RAIN      68  66  93 SE7       30.07F FOG
$$

OKZ008-013-054>072-301600-
NORTHEAST OKLAHOMA

CITY           SKY/WX    TMP DP  RH WIND       PRES   REMARKS
TULSA          CLOUDY    76  65  68 SW16      30.06R
TULSA/JONES    LGT RAIN  73  66  78 SW8       30.09R
PONCA CITY     HVY RAIN  68  66  93 S6        30.09S FOG
BARTLESVILLE   LGT RAIN  69  68  96 W6        30.09R FOG
MUSKOGEE       CLOUDY    74  68  81 SW10      30.10R
$$

OKZ032-040>043-046>053-073>077-301600-
SOUTH CENTRAL/SOUTHEAST OKLAHOMA

CITY           SKY/WX    TMP DP  RH WIND       PRES   REMARKS
ARDMORE/DWNTWN LGT RAIN  68  68 100 CALM      30.10S
MCALESTER      LGT RAIN  72  69  90 S6        30.11S FOG
$$



USA.gov is the U.S. government's official web portal to all federal, state and local government web resources and services.